ROVANIEMI_(CIV/MIL) current weather conditions

sailwx.info

Wind from 100 at 6 knots

Air temperature -8.0° C
Visibility: greater than 5.4 NM
Dewpoint -9.0° C

Last reported at 2019-Dec-08 23:50 UTC.
Time now 2019-Dec-09 00:38 UTC

Location: N 66°34' E 025°50'.
View on Google Maps.

See reports from other nearby stations

  
Tides and Currents Weather Stations Pressure Air Temp Water Temp Dewpoint Dewpoint Depression Visibility Wind Speed Wind Dir Waves Ship Positions
date/time (UTC)wind fromknots sea level pressurealtimeterstation pressurevisibilityair tempwater tempwave heightnotes
2019-Dec-08 23:50 100 6 5.4-8.0
2019-Dec-08 23:20 090 6 5.4-8.0
2019-Dec-08 22:50 100 6 5.4-8.0
2019-Dec-08 22:20 100 5 5.4-8.0
2019-Dec-08 21:50 120 4 5.4-8.0
2019-Dec-08 21:20 100 4 2.3-8.0 Mist.
2019-Dec-08 20:50 140 2 5.4-7.0
2019-Dec-08 20:20 210 2 4.9-7.0
2019-Dec-08 19:50 1.9-7.0 Precipitation.
2019-Dec-08 19:20 210 6 1.5-7.0 Patches of fog.
2019-Dec-08 18:50 210 6 1.2-7.0 Patches of fog.
2019-Dec-08 18:20 210 5 5.4-7.0
2019-Dec-08 17:50 220 2 5.4-7.0
2019-Dec-08 17:20 220 5 5.4-7.0 Light snow showers.
2019-Dec-08 16:50 220 6 5.4-7.0 Light snow.
2019-Dec-08 16:20 240 4 5.4-7.0 Light snow.
2019-Dec-08 15:50 220 5 2.3-7.0 Light snow.
2019-Dec-08 15:20 230 4 3.2-6.0 Light freezing drizzle. Snow.
2019-Dec-08 14:50 240 4 3.2-6.0 Light snow.
2019-Dec-08 14:20 250 4 1.4-6.0 Light ice pellets.
2019-Dec-08 13:50 270 4 2.3-6.0 Light snow.
2019-Dec-08 13:20 270 6 2.5-6.0 Light snow showers.
2019-Dec-08 12:50 260 6 3.2-6.0 Light freezing drizzle. Snow.
2019-Dec-08 12:20 2.7-5.0 Light snow showers.
2019-Dec-08 11:50 3.2-5.0
2019-Dec-08 11:20 320 2 2.7-5.0 Precipitation.
2019-Dec-08 10:50 310 2 2.4-5.0 Light freezing drizzle. Snow.
2019-Dec-08 10:20 310 5 2.7-5.0 Light freezing rain.
2019-Dec-08 09:50 320 6 2.0-5.0 Light freezing drizzle. Snow.
2019-Dec-08 09:20 330 5 1.7-4.0 Light snow.
2019-Dec-08 08:50 290 2 2.0-4.0 Light snow.
2019-Dec-08 08:20 300 4 3.2-3.0 Light snow showers.
2019-Dec-08 07:50 2.3-2.0 Light snow.
2019-Dec-08 07:20 3.2-2.0 Light snow.
2019-Dec-08 06:50 170 2 5.4-2.0
2019-Dec-08 06:20 120 2 5.4-2.0
2019-Dec-08 05:50 100 2 2.4-2.0 Light snow.
2019-Dec-08 05:20 2.1-2.0 Light snow.
2019-Dec-08 04:50 5.4-2.0
2019-Dec-08 04:20 140 2 5.4-2.0
2019-Dec-08 03:50 130 4 2.2-2.0 Light snow showers.
2019-Dec-08 03:20 130 2 5.4-2.0 Light snow showers.
2019-Dec-08 02:50 120 1 5.4-2.0 Light freezing rain. Snow.
2019-Dec-08 01:50 130 2 3.2-2.0 Light snow.
2019-Dec-08 01:20 130 2 3.2-2.0 Light snow.
2019-Dec-08 00:50 150 2 4.3-2.0 Light snow.
2019-Dec-08 00:20 160 4 1.8-2.0 Light freezing rain. Snow.
2019-Dec-07 23:50 170 4 2.7-2.0 Light snow.
2019-Dec-07 23:20 160 5 2.7-2.0 Light snow.
2019-Dec-07 22:50 180 5 2.3-1.0 Light snow.
2019-Dec-07 22:20 180 5 1.9-1.0 Light snow.
2019-Dec-07 21:50 180 6 2.2-1.0 Light snow.
2019-Dec-07 21:20 180 6 2.7-1.0 Light snow.
2019-Dec-07 20:50 190 6 2.6-1.0 Light freezing drizzle. Snow.
2019-Dec-07 20:20 200 6 2.7-1.0 Light freezing drizzle. Snow.
2019-Dec-07 19:50 190 7 3.2-1.0 Precipitation.
2019-Dec-07 19:20 200 8 3.8-1.0 Precipitation.
2019-Dec-07 18:50 200 9 4.9-1.0 Light freezing drizzle.
2019-Dec-07 18:20 200 8 3.2-1.0 Light freezing drizzle.
2019-Dec-07 17:50 200 9 3.2-1.0 Light freezing drizzle. Snow.
2019-Dec-07 17:20 200 11 2.7-1.0 Precipitation.
2019-Dec-07 16:50 200 11 3.8-1.0 Light freezing drizzle. Snow.
2019-Dec-07 16:20 200 8 4.9-1.0 Light freezing drizzle.
2019-Dec-07 15:50 200 8 5.4-1.0
2019-Dec-07 15:20 190 12 5.4-1.0
2019-Dec-07 14:50 200 12 5.4-1.0
2019-Dec-07 14:20 190 8 5.4-1.0
2019-Dec-07 13:50 200 9 5.4-1.0
2019-Dec-07 13:20 190 9 5.4-1.0
2019-Dec-07 12:50 190 8 5.4-1.0
2019-Dec-07 12:20 190 9 5.4-1.0
2019-Dec-07 11:50 200 8 5.4-1.0
2019-Dec-07 11:20 200 8 5.4-1.0
2019-Dec-07 10:50 200 11 5.4-1.0
2019-Dec-07 10:20 190 7 5.4-1.0
2019-Dec-07 09:50 200 11 5.4-1.0
2019-Dec-07 09:20 210 12 5.4-1.0
2019-Dec-07 08:50 200 12 5.4-1.0
2019-Dec-07 08:20 200 11 5.4-1.0
2019-Dec-07 07:50 200 11 2.4-1.0 Light snow.
2019-Dec-07 07:20 210 12 5.4-1.0
2019-Dec-07 06:50 210 12 5.4-1.0
2019-Dec-07 06:20 210 12 5.4-1.0
2019-Dec-07 05:50 200 11 5.4-1.0
2019-Dec-07 05:20 200 13 5.4-1.0
2019-Dec-07 04:50 190 9 5.4-1.0 Light snow showers.
2019-Dec-07 04:20 190 9 4.3-1.0 Light snow showers.
2019-Dec-07 03:50 190 8 5.4-1.0 Light snow.
2019-Dec-07 03:20 200 9 5.4-1.0
2019-Dec-07 02:50 180 7 0.9-1.0 Light snow showers.
2019-Dec-07 02:20 180 6 1.5-1.0 Light freezing drizzle. Snow.
2019-Dec-07 01:50 170 6 1.8-1.0 Light snow showers.
2019-Dec-07 01:20 180 6 3.8-1.0 Light snow showers.
2019-Dec-07 00:50 190 6 5.4-1.0
2019-Dec-07 00:20 170 7 5.4-2.0